Dewpoint
57 56 57 57 56 56 56 56 56 56 56 56 56 56 57 57 57 57 58 58 58 59 59 59 59 60 60 61 61 61 60 52 48 45 31 30 52 60 65 62 65 65 62 35 28 24 22 22 22 23 32 32 34 30 32 33 37 31 27 26 21 23 17 20 17 21 21 19 20 22 19 18 18 20 22 21 22 25 26 32 35 48 52 53 53 52 55 58
56 56 56 56 56 56 56 56 56 56 56 56 56 56 56 57 56 56 57 57 58 58 59 59 59 60 60 61 61 61 56 50 43 38 27 54 64 64 64 65 63 64 49 29 23 22 20 20 22 28 30 29 36 30 33 31 35 28 25 28 25 25 20 23 20 20 19 19 20 22 20 17 17 20 21 20 19 23 24 25 34 44 47 53 54 55 57 58
57 56 56 55 55 55 55 56 56 56 55 55 55 55 55 56 56 56 56 57 57 57 58 59 59 59 60 61 60 60 49 38 34 33 36 62 61 65 63 65 64 64 40 33 28 22 20 20 24 24 26 27 28 30 30 27 28 31 24 19 23 28 22 22 21 20 20 21 21 20 20 18 18 19 22 20 19 22 21 22 29 40 41 51 54 55 57 58
57 57 56 55 55 55 55 55 55 55 55 55 55 55 55 55 56 56 56 56 57 57 57 59 59 60 60 60 61 56 38 29 21 25 46 61 61 65 65 64 65 59 46 41 30 28 22 18 20 23 25 25 26 30 26 29 25 27 23 21 21 25 19 19 22 21 22 21 21 20 17 16 18 19 18 17 19 19 20 22 25 30 44 52 54 55 57 57
56 56 55 54 54 54 54 55 55 54 54 54 54 54 54 55 55 56 56 56 57 57 57 58 59 60 60 60 59 52 30 9 13 37 46 62 62 62 63 65 64 55 50 45 29 25 21 16 19 22 24 17 25 25 22 25 24 25 20 26 23 24 19 20 22 25 22 21 19 18 17 16 20 19 17 19 17 17 18 19 24 28 47 54 55 56 56 57
57 56 55 54 54 54 54 54 54 54 53 54 54 55 54 55 55 55 56 57 56 57 57 58 59 60 60 59 52 42 20 3 22 45 55 61 62 63 64 64 61 47 35 30 27 24 19 18 16 18 14 18 20 22 20 23 24 19 20 21 25 22 18 21 24 24 18 18 18 17 18 19 18 19 18 17 15 15 17 20 21 25 52 55 56 56 56 56
57 56 55 55 54 54 54 54 54 54 53 54 54 54 54 54 55 55 56 55 57 57 58 58 59 59 60 58 50 33 22 14 46 46 60 60 62 64 64 63 56 38 31 27 26 24 23 17 15 20 15 15 14 20 17 22 20 22 18 19 21 24 20 24 22 24 19 18 17 17 20 18 19 16 19 14 14 13 15 22 20 33 54 55 55 56 57 57
57 56 56 56 56 54 54 53 53 53 53 54 54 54 54 55 55 55 56 56 56 57 57 58 58 59 59 45 30 31 32 26 36 50 57 61 49 59 55 50 43 39 29 26 25 23 19 15 12 20 13 10 13 14 18 19 18 18 18 21 21 23 23 23 23 23 21 21 23 21 18 19 19 18 21 18 17 17 19 30 31 51 54 54 55 55 56 56
57 56 56 56 56 55 55 53 53 53 53 53 53 54 54 55 54 55 55 56 56 57 57 58 58 59 58 40 29 17 16 34 48 51 49 44 43 48 46 41 42 36 35 33 33 25 19 18 16 14 10 12 14 16 18 19 18 16 17 22 23 22 23 23 22 22 23 22 21 19 19 20 22 21 20 20 21 21 30 36 46 52 53 53 54 55 55 55
56 56 56 56 56 55 55 53 53 53 53 53 53 53 54 54 54 55 55 55 56 57 57 58 58 58 49 35 26 6 20 47 50 48 46 43 43 44 44 44 36 34 31 32 24 21 20 20 16 19 16 17 16 18 19 19 15 16 22 23 22 23 23 23 21 22 23 23 22 19 19 20 22 19 14 17 19 30 31 36 44 51 52 53 53 54 55 55
56 56 56 56 56 54 53 53 53 53 53 53 53 53 54 54 54 54 55 55 56 56 57 58 59 54 43 27 15 10 41 47 48 45 45 44 42 40 41 44 41 38 34 37 26 22 24 23 33 25 24 15 21 19 18 16 20 23 22 22 22 22 25 24 22 23 22 19 20 19 19 22 22 21 16 18 22 26 28 32 41 45 50 52 52 53 54 55
56 55 56 55 55 54 53 53 53 52 52 52 53 53 53 53 54 55 55 56 55 57 57 58 58 51 31 23 16 18 38 46 47 45 46 42 41 45 44 42 42 41 31 29 34 41 32 30 24 17 13 22 18 23 25 25 23 23 20 16 20 21 21 21 21 22 23 20 23 21 18 16 21 19 22 23 24 25 27 30 33 38 42 48 50 51 52 54
56 56 56 55 54 54 53 53 52 52 52 52 52 53 53 53 54 54 55 56 57 57 57 58 56 54 32 13 18 35 46 48 47 44 44 47 44 44 45 46 45 41 35 30 31 40 40 32 25 21 24 20 19 14 21 24 23 21 21 19 16 18 16 20 24 24 22 22 25 17 8 10 12 18 21 22 21 23 23 25 28 30 31 35 43 48 51 51
56 56 55 55 54 54 53 53 52 52 52 52 53 53 53 53 53 54 55 54 56 57 58 56 52 49 15 7 34 45 47 50 47 41 43 46 37 40 40 42 44 42 45 37 38 42 43 34 26 24 29 19 19 29 21 20 20 17 19 23 19 13 12 18 23 24 21 24 25 9 9 7 9 10 12 14 20 21 21 22 23 26 28 28 32 38 44 48
56 56 55 54 54 53 53 52 51 52 52 52 53 53 53 53 54 55 55 55 56 57 58 56 49 29 17 16 39 43 57 45 41 42 45 40 35 35 34 36 37 38 39 36 39 43 38 33 27 23 21 25 25 21 19 19 21 18 13 14 21 12 16 21 25 22 19 22 18 13 15 11 10 13 17 23 27 22 20 21 22 23 25 25 26 28 32 36
56 55 55 54 53 52 52 52 51 52 52 52 52 53 53 55 55 56 56 56 57 58 54 51 48 25 16 17 42 51 42 36 36 42 48 46 39 36 36 37 40 37 33 33 40 33 32 29 24 24 24 20 19 19 18 19 19 23 13 16 17 19 17 19 24 27 24 23 23 13 12 14 17 17 20 22 23 22 21 21 21 22 23 24 24 24 26 28
55 55 54 54 53 52 52 51 52 52 52 53 53 53 54 55 55 56 57 57 56 57 54 46 50 34 8 22 35 37 34 39 46 45 43 44 43 38 37 35 32 34 35 34 34 32 28 26 28 23 24 19 19 19 14 13 16 17 21 15 23 17 17 16 21 24 26 22 21 22 17 15 14 16 18 21 26 24 22 22 22 22 22 23 24 24 24 25
55 55 54 53 52 52 51 51 52 52 53 53 54 54 53 56 57 57 55 54 53 53 51 50 39 20 14 32 30 31 40 42 43 44 44 43 43 37 34 30 35 33 32 28 26 23 28 24 26 21 25 22 16 15 14 8 15 17 18 16 15 17 18 15 20 21 23 23 21 21 21 20 21 21 21 22 24 23 22 23 23 23 23 23 24 24 24 24
55 54 54 53 52 51 51 51 52 52 53 53 54 55 55 56 53 52 48 49 24 21 23 27 15 15 18 16 34 43 44 42 42 40 38 40 42 40 38 36 34 27 26 22 21 23 28 27 27 21 19 19 15 10 10 18 18 18 19 16 19 17 17 17 19 21 24 22 21 21 20 20 21 21 21 21 21 21 21 22 23 23 24 24 24 24 25 25
55 54 54 53 52 51 51 51 52 53 53 53 53 51 41 37 37 37 40 40 31 19 24 26 20 26 33 36 40 43 45 40 33 37 43 42 38 35 31 33 35 29 22 22 29 28 32 22 18 18 19 19 18 13 19 19 18 22 25 22 18 18 19 21 24 25 24 20 21 22 22 21 21 21 21 21 21 21 20 19 19 20 21 23 24 24 24 25
55 54 53 53 52 52 52 52 53 53 55 51 52 38 28 29 26 27 35 36 37 37 30 31 28 34 34 40 42 37 30 30 38 38 40 46 39 29 28 29 28 25 28 28 28 28 25 19 19 20 17 19 20 20 19 19 21 19 20 18 17 19 16 19 22 25 25 18 16 20 20 19 19 19 19 19 18 17 16 17 18 18 19 20 22 23 24 24
55 54 53 53 53 52 52 53 53 55 54 52 50 38 38 30 29 32 25 17 26 38 39 35 39 38 39 40 40 41 36 30 33 37 42 40 33 25 26 26 23 21 28 28 27 24 21 19 17 20 22 19 20 18 18 18 21 23 19 20 20 19 22 21 22 23 24 20 18 19 20 20 20 19 19 17 17 16 16 16 15 15 17 18 19 21 22 24
54 54 53 53 54 54 54 54 53 55 52 51 48 46 43 45 45 45 27 21 21 33 34 35 35 37 37 37 39 41 26 26 26 34 38 39 33 30 27 24 23 26 27 24 21 23 19 21 22 21 22 18 19 20 20 21 23 19 16 15 15 21 17 19 17 22 22 20 21 21 22 21 21 21 22 22 20 19 20 20 20 20 17 17 17 18 20 22
55 54 53 52 52 54 54 54 55 53 50 49 45 45 45 46 46 40 28 19 18 29 34 32 38 38 37 34 38 30 24 24 28 29 37 36 29 34 26 25 24 25 24 23 21 19 17 19 24 26 21 17 18 20 17 16 15 21 23 21 22 23 22 18 17 23 19 21 26 19 16 12 16 18 17 15 17 18 23 21 23 26 26 24 27 27 27 22
55 54 53 53 53 54 54 55 52 50 50 48 46 47 47 47 47 46 25 17 19 27 35 33 40 39 37 43 42 30 29 37 39 38 41 35 29 27 25 26 25 23 25 24 20 19 17 19 26 23 25 24 22 17 21 22 15 17 22 22 19 24 23 26 21 16 16 14 19 17 8 16 18 16 19 19 11 9 9 11 11 14 20 25 24 25 26 28
54 54 54 54 54 54 55 51 49 50 48 45 46 47 47 47 45 41 23 20 13 21 27 26 35 24 41 35 39 37 30 25 34 39 43 36 36 27 25 23 24 21 24 22 19 22 17 28 25 24 25 24 22 20 22 22 18 16 16 24 21 25 25 24 18 17 12 5 13 20 4 11 13 11 8 8 14 15 15 15 13 14 16 18 18 20 23 25
55 55 55 56 56 56 50 44 47 47 42 41 44 47 48 47 46 33 16 15 11 24 20 30 28 29 36 34 38 25 17 21 39 38 37 40 32 36 22 22 22 25 25 24 23 20 27 26 25 27 24 23 21 18 23 19 17 15 20 27 27 24 23 21 20 18 17 21 22 24 13 7 10 10 14 15 15 11 7 6 9 11 14 16 19 20 21 23
56 56 56 57 56 56 50 48 46 43 39 43 47 48 47 46 39 27 23 8 9 24 21 22 26 37 37 35 32 17 22 30 28 33 39 40 33 27 23 23 21 25 25 24 19 25 25 26 25 24 26 23 20 23 25 24 19 18 26 28 25 25 24 24 23 21 23 14 15 18 24 8 13 16 18 16 10 7 5 4 10 15 22 25 25 23 22 23
56 56 56 57 57 56 56 50 45 41 46 46 46 48 46 38 29 16 16 6 21 23 30 19 33 35 35 31 27 31 31 34 23 31 39 36 37 27 22 24 25 27 28 22 18 25 30 29 28 26 25 20 24 30 27 29 27 29 29 29 28 27 26 25 22 19 15 8 14 14 18 4 11 17 15 14 9 9 9 11 14 21 25 29 32 31 32 31
56 56 57 57 56 55 55 54 49 48 48 47 47 43 38 29 17 17 5 2 21 15 27 26 29 28 32 28 26 28 29 32 36 35 33 31 32 30 28 27 26 26 27 30 29 28 31 34 33 24 23 24 29 31 31 30 29 32 28 24 22 21 23 23 20 13 10 3 15 19 20 8 6 14 13 9 11 10 12 17 19 23 28 29 32 33 35 36
56 56 56 57 53 54 55 50 51 50 48 48 46 38 31 25 18 12 3 12 30 27 26 25 24 33 29 25 24 25 33 33 33 32 30 31 28 27 27 24 27 26 26 27 27 28 27 29 30 30 34 31 31 30 30 30 29 27 23 20 19 18 17 16 16 17 4 6 12 17 20 9 5 10 16 15 14 14 15 17 19 22 23 26 29 32 34 35
54 56 57 56 56 56 52 49 51 49 49 48 42 34 24 17 21 11 8 19 15 20 23 22 24 30 27 27 28 30 31 32 32 30 28 29 28 24 24 21 24 21 20 22 22 26 26 27 27 31 35 30 29 31 30 30 27 22 18 15 15 7 12 7 8 4 5 6 17 20 22 13 13 11 11 13 14 15 16 16 19 22 24 26 27 29 34 35
53 55 56 56 55 54 53 51 50 50 49 45 36 30 23 20 11 13 16 18 15 24 21 26 25 28 28 25 26 30 31 28 31 29 31 30 27 27 28 27 28 24 18 23 26 24 26 28 28 30 30 33 30 24 26 25 25 20 17 15 9 -0 0 -6 -0 -0 4 8 15 19 21 14 14 14 17 14 13 13 14 17 21 24 25 27 28 30 32 34
52 54 55 55 56 54 52 50 50 49 47 42 27 25 21 11 13 29 17 20 23 28 27 27 27 26 24 22 26 30 26 26 31 28 30 29 27 25 25 27 24 23 24 24 23 24 16 17 24 29 27 30 28 26 28 27 24 19 21 16 15 10 3 -5 -4 -6 5 11 14 18 6 12 1 4 17 18 18 21 22 20 22 25 27 28 29 31 32 30
53 54 55 55 54 53 51 50 50 48 46 35 26 22 17 14 15 15 16 23 28 29 26 28 27 26 24 24 25 29 28 26 31 30 29 27 26 25 24 23 27 27 26 21 23 20 20 20 23 29 29 30 29 29 31 28 25 25 22 17 8 10 16 -5 7 3 3 4 4 11 11 17 12 14 19 21 22 23 24 25 24 20 21 21 23 29 29 26
52 53 55 53 53 53 52 51 49 47 42 29 21 16 17 17 15 21 17 30 30 26 25 25 25 24 22 21 26 28 26 29 30 29 28 28 26 25 26 25 26 25 22 18 23 20 19 16 27 31 30 30 29 28 27 26 17 22 19 14 21 21 18 11 8 12 7 6 8 10 17 18 18 9 12 16 15 13 17 18 16 18 19 20 21 27 26 27
49 51 50 52 53 53 52 51 50 46 41 27 18 16 18 25 29 25 35 29 28 25 25 21 23 21 21 19 24 26 26 32 29 27 24 28 24 27 26 26 28 26 22 23 23 26 19 20 27 28 27 29 32 29 29 30 25 23 17 21 25 24 21 11 2 5 -0 2 8 9 9 12 6 10 16 10 13 13 14 15 13 16 19 16 20 25 27 27
47 48 50 50 52 52 52 50 49 46 42 29 18 24 26 20 34 36 36 27 27 26 24 21 22 24 21 20 22 25 26 25 27 26 24 25 22 28 26 24 26 25 23 23 17 21 23 16 21 31 29 31 31 29 26 29 29 25 24 26 17 12 9 14 9 -2 2 -1 6 10 13 13 12 11 12 7 10 12 11 14 13 15 17 19 22 25 29 32
47 46 44 48 53 53 52 51 48 44 38 29 21 22 32 30 36 34 37 33 30 26 23 24 23 23 23 20 22 24 27 20 27 25 23 25 20 24 25 25 25 26 24 20 14 19 22 17 17 28 29 30 29 27 23 26 28 29 25 21 26 20 18 8 10 9 10 -1 -6 9 3 5 16 14 13 5 9 12 9 12 13 15 18 22 24 28 32 33
44 42 42 51 53 53 52 50 45 43 37 26 24 20 33 32 34 34 36 33 30 23 24 25 28 23 24 23 24 22 26 24 26 26 23 25 22 25 24 25 23 26 24 22 21 28 19 15 9 26 30 28 27 28 24 27 25 23 21 20 24 21 22 21 12 12 6 -2 -1 -1 4 10 16 16 14 8 6 10 13 18 20 20 20 23 26 30 33 34
44 42 41 52 52 53 52 46 42 39 35 33 33 31 33 31 35 35 38 38 36 38 31 30 28 22 25 25 23 24 25 25 27 25 23 24 21 17 25 24 26 25 26 25 21 24 21 12 14 28 26 25 26 28 27 28 27 24 22 20 23 21 14 8 14 17 6 3 3 -3 6 8 19 17 13 9 9 15 18 20 22 22 23 25 30 32 33 33
41 34 40 52 52 52 47 39 37 39 35 32 30 34 33 40 36 37 38 38 37 36 39 34 33 28 26 24 25 26 25 24 26 25 25 21 24 22 27 25 24 26 24 22 18 26 24 24 27 23 27 27 28 29 30 30 29 27 24 22 25 21 20 11 7 12 11 14 11 9 2 13 20 16 13 14 14 12 20 23 22 23 24 26 29 32 33 35
37 37 47 50 52 49 43 34 36 35 33 36 38 36 37 37 35 37 36 37 34 37 35 33 34 29 30 27 30 26 26 24 26 25 25 24 25 23 26 26 27 28 26 22 24 25 31 19 19 20 24 26 28 29 30 30 29 27 27 25 25 22 21 17 16 18 18 11 9 7 6 15 20 22 25 21 19 20 23 22 25 27 28 30 30 29 29 29
35 38 44 48 49 48 39 31 31 32 35 37 37 35 38 38 37 37 36 37 35 36 34 35 35 36 30 33 28 25 28 19 25 26 23 26 22 31 34 28 27 26 23 22 20 28 15 20 19 12 13 21 23 26 27 28 28 24 25 26 26 25 24 22 18 16 11 17 16 14 10 13 22 26 25 23 23 24 24 25 27 28 29 29 29 30 30 31
32 34 36 43 48 46 37 37 33 33 33 34 35 33 35 35 38 38 37 37 38 36 35 35 35 36 36 34 32 31 29 24 22 28 27 27 25 34 34 32 28 25 26 34 30 28 21 23 20 16 13 13 14 19 20 25 28 27 26 26 27 26 23 20 16 14 14 18 17 11 12 15 19 23 21 22 22 22 23 24 25 28 27 28 29 30 31 31
29 28 33 37 44 42 42 42 38 35 34 34 33 35 35 33 35 38 38 38 39 39 36 37 38 37 35 32 31 30 28 31 27 25 29 28 28 32 35 32 32 29 34 38 33 25 18 24 20 18 16 13 15 17 27 30 26 26 27 27 26 27 25 24 23 18 16 18 17 18 17 17 17 19 20 21 22 22 23 25 26 28 28 29 30 31 31 30
33 25 29 32 39 40 39 41 38 38 34 37 32 36 34 34 35 38 38 34 38 38 38 37 36 34 33 32 31 30 31 31 33 30 28 28 30 32 34 32 32 36 38 34 31 26 22 19 22 20 20 17 18 21 27 28 27 27 27 27 28 27 26 25 22 19 20 14 16 20 21 19 18 20 21 20 22 24 25 25 25 28 30 30 31 30 33 31
28 29 30 32 34 33 34 36 39 37 37 38 35 37 35 34 36 35 39 38 40 39 35 36 37 35 35 33 32 29 32 31 32 30 32 32 32 33 32 34 32 35 34 32 33 24 24 20 22 21 20 20 20 22 26 27 26 27 27 27 27 27 26 25 25 24 23 20 17 19 22 20 18 19 21 21 22 22 24 25 27 28 29 30 30 31 31 31
33 33 32 32 30 29 35 37 38 37 37 37 36 37 34 34 34 36 38 37 38 38 38 32 34 35 34 34 33 30 31 29 30 31 30 30 30 30 30 31 33 32 33 32 30 29 24 21 25 22 21 21 25 27 27 26 25 25 27 27 27 27 27 26 26 26 25 23 23 22 23 22 21 21 21 21 24 25 27 28 31 31 31 31 31 31 31 32
30 30 29 30 29 28 30 36 38 37 35 38 34 35 35 35 34 37 38 38 34 36 38 35 33 35 36 35 34 32 33 31 30 31 31 32 30 30 31 31 31 33 32 31 30 32 24 23 31 25 20 22 24 29 28 26 25 24 26 27 27 28 28 27 26 26 26 25 25 24 24 24 25 25 23 25 30 31 31 31 31 31 32 32 31 31 31 32
34 34 33 29 26 27 29 33 37 36 35 36 34 34 35 35 35 37 37 39 37 36 38 36 35 36 36 36 36 35 35 35 35 35 36 35 33 34 33 32 36 32 32 32 32 33 29 24 28 25 22 19 26 28 27 25 26 23 24 26 26 27 26 27 27 27 25 25 25 25 25 24 25 25 26 29 30 30 30 31 32 33 32 30 31 31 31 32
33 34 35 32 25 31 27 27 34 36 32 35 34 34 33 34 35 37 35 38 39 38 39 39 38 37 37 37 36 37 37 36 37 36 35 37 39 37 38 38 38 35 32 33 33 33 31 30 29 27 24 23 26 28 27 27 25 25 27 27 27 27 27 27 28 28 27 26 25 25 24 25 28 28 29 30 30 31 32 32 32 32 31 30 31 32 32 32